Location: Ferchesar
(52.6477°N, 12.4298°E)
Time: 18:29:34
(UTC+01:00)

Vanguard 1 Rocket - Pass Details

Date: 08 December 2021
Orbit: 651 x 4224 km, 34.3° (Epoch: 16 January)

Event Time Altitude Azimuth Distance (km) Brightness Sun altitude
Exits shadow 04:56:07 25° 228° (SW) 3,873 10.2 -27.8°
Maximum altitude 05:03:15 37° 185° (S) 3,952 10.5 -26.7°
Drops below altitude 10° 05:22:15 10° 129° (SE) 7,135 12.7 -23.8°
Sets 05:29:05 0° 123° (ESE) 8,394 13.4 -22.8°
